COSMOS 249 DEB, 3793

Orbit data source: Space-Track

COSMOS 249 DEB, 3793 is space debris in LEO originally from a launch on Sun, 20 Oct 1968 UTC launched from the Tyuratam Missile And Space Complex (TTMTR). Debris objects in space refer to the collection of defunct objects orbiting the Earth. Examples of debris include non-operational satellites, rocket bodies, and fragments generated from explosions, collisions, or faulty payload assembly.

Loading next visibility...
Identifier
3793, 1968-091BA
Orbit
LEO
Country
Flag of CISCIS
Related business
Manufacturer
Unknown
Mission
Spacecraft
Bus & Motor
Unknown
Mass
Unknown
Launch date (UTC)
1968-10-20 (57 years ago)
Launch vehicle
Unknown
Launch site
Tyuratam Missile And Space Complex (TTMTR)
Object type
Payload
Rocket body
Debris
Shape & HBR
Unknown shape, 1.1 m
Radar Cross Section
Small (<0.1 m²)

Expand to show TLE details & history
Last TLE update: 21 hours ago

TLE from 21 hours ago
0 COSMOS 249 DEB
1 03793U 68091BA  25286.67731660  .00001417  00000-0  14432-2 0  9994
2 03793  62.2224 166.9124 0600043 274.3513  78.9197 13.20293711668818
Epoch: 2025-10-13T16:15Z
TLE epoch observation values (Epoch: 2025-10-13T16:15:20.154Z)
Latitude
0.00003°
Longitude
-99.39822°
Altitude
1,124.664 km
Speed
7.32 km/s
True Right ascension
11h 07m 38s
True Declination
0° 00' 00"
Sunlit
Object was in daylight at epoch
Visualization orbit readout
Latitude
Unknown
Longitude
Unknown
Altitude
Unknown
Speed
Unknown
Apparent Right ascension
Unknown
Apparent Declination
Unknown
Sunlit
N/A
Visualization observer readout
Local Sidereal Time
07:53:42
Azimuth
Unknown
Elevation
Unknown
Doppler factor
Unknown
Orbital elements
Apogee altitude
1,636.259 km
Perigee altitude
728.907 km
Semi-major axis
7,560.72 km
Eccentricity
0.06
Inclination
62.2224°
RAAN
166.9124°
Arg. of periapsis
274.3513°
True anomaly
85.7499°
Mean anomaly
78.9197°
Eccentric anomaly
82.32691°
Mean motion
3.3014 °/min
Orbital period
109.04 mins
BSTAR
0.0014432
Loading maneuver chart data...
Computing Atmospheric mass density...

Documentation

Showing up to 5 results
|